Regional Weather Roundup
Issued by NWS Northern Indiana

Home | Current Version | Previous Version | Text Only | Print | Product List | Glossary Off
Versions: 1 2 3 4 5 6 7 8 9 10 11 12 13 14 15 16 17 18 19 20 21 22 23 24 25 26 27 28 29 30 31 32 33 34 35 36 37 38 39 40 41 42 43 44 45 46 47 48 49 50

000
ASUS43 KIWX 171010
RWRIWX

KIWX WEATHER ROUNDUP
NATIONAL WEATHER SERVICE NORTHERN INDIANA
500 AM EST TUE JAN 17 2017

NOTE: "FAIR" INDICATES FEW OR NO CLOUDS BELOW 12,000 FEET WITH NO
SIGNIFICANT WEATHER AND/OR OBSTRUCTIONS TO VISIBILITY.

* THESE STATIONS ARE NOT UNDER NWS QUALITY CONTROL. THEY ALSO MAY NOT
  REPORT WEATHER SUCH AS PRECIPITATION OR FOG.

INZ001>027-171100-
NORTHERN INDIANA

CITY           SKY/WX    TMP DP  RH WIND       PRES   REMARKS
VALPARAISO     CLOUDY    51  51 100 SW10      29.74F FOG
LAPORTE*       RAIN      49  49 100 S10       29.74F
KNOX*          CLOUDY    50  46  87 S14G20    29.75S
SOUTH BEND     LGT RAIN  45  45 100 E3        29.76F FOG
GOSHEN         RAIN      47  45  93 S13       29.77R FOG
ROCHESTER*     TSTM      54  54 100 CALM      29.78F
WARSAW*        RAIN      50  46  87 S7        29.79S
FORT WAYNE     CLOUDY    49  48  97 S12       29.81F FOG
PERU/GRISSOM   LGT RAIN  54  54 100 S10       29.76F
MARION*        CLOUDY    54  54 100 S13G20    29.80F

$$
INZ028>050-171100-
CENTRAL INDIANA

CITY           SKY/WX    TMP DP  RH WIND       PRES   REMARKS
LAFAYETTE      LGT RAIN  56  55  97 W13       29.77F FOG
KOKOMO*        HVY RAIN  54  53  97 S10       29.80F FOG
MUNCIE*        CLOUDY    57  54  89 S12       29.81F
INDIANAPOLIS   CLOUDY    58  55  90 S17       29.81F

$$
MIZ043>046-050>051-056>058-064>065-071>073-077>080-171100-
SOUTHWEST LOWER MICHIGAN

CITY           SKY/WX    TMP DP  RH WIND       PRES   REMARKS
BATTLE CREEK   FOG       38  38 100 SE9       29.80F VSB 3/4
BENTON HARBOR  LGT RAIN  46  44  93 SE9       29.75F
COLDWATER*     DRZL/FOG  39  39 100 SE9       29.80F VSB 1/2
HILLSDALE*     SNOW      34  34 100 E12       29.82F VSB 1/4 WCI  25
HOLLAND        LGT RAIN  36  35  96 E7        29.79F
GRAND RAPIDS   LGT RAIN  34  34 100 E16       29.81F FOG     WCI  24
KALAMAZOO      FOG       41  39  93 SE9       29.78F VSB 1/2
STURGIS*       CLOUDY    41  41 100 SE14      29.77F FOG
THREE RIVERS*  LGT RAIN  40  40 100 SE8       29.79S

$$
OHZ001>008-015>018-024>025-171100-
NORTHWEST OHIO

CITY           SKY/WX    TMP DP  RH WIND       PRES   REMARKS
DEFIANCE       FOG       39  37  92 E6        29.84F VSB 1/4
FINDLAY        CLOUDY    50  47  89 S18       29.86F
TOLEDO EXPRESS FOG       36  36 100 E6        29.86F VSB 1/4
TOLEDO METCALF FOG       38  38 100 E5        29.88F VSB 1/4
LIMA           CLOUDY    51  51 100 S12       29.86S

$$
AND FOR LAKE MICHIGAN COASTAL AND OPEN LAKE BUOY OBSERVATIONS

STATION/POSITION TEMP    WIND        PRES    VSBY  WAVE
                 AIR SEA DIR/SP/G                  HT/PER
                 (F)     (DEG/KT/KT) (MB)    (MI)  (FT/S)
CALUMET HARBOR    42      CALM  /  2 1006.1F
BURNS HARBOR      51     220/ 11/ 15 1007.5F

$$
&&




USA.gov is the U.S. government's official web portal to all federal, state and local government web resources and services.